Victoria Regional Airport
KVCT : now visible

Airfield :











YOU CAN JOIN US ON...

 
LOGIN :

Register | Disclaimer

   EN    FR    IT 

 









Legend :    VFR   Marginal VFR   IFR   Intensive IFR   Very Intensive IFR
Visi :
Ceiling :
>= 8 km
>= 3000ft
5 to 8 km
1000 to 3000 ft
1500m to 5 km
500 to 1000 ft
800 to 1500m
200 to 500 ft
< 800m
< 200 ft
Symbols :   Thunderstorms  Fog  Heavy snow  Heavy precipitations  Wind > 20 kt






- Airport Elevation : 115 ft
- IATA code : VCT


KVCT - Victoria Regional

CURRENT METAR :
  • 270451Z AUTO 00000KT 10SM CLR 02/M03 A3047 RMK AO2 SLP319 T00171033

EXPIRED METARs :
  • 270351Z AUTO 36007KT 10SM CLR 04/M03 A3046 RMK AO2 SLP314 T00441028
  • 270251Z 33006KT 10SM CLR 04/M03 A3044 RMK AO2 SLP308 T00441028 53026

TAF KVCT
Valid from the 27 at 06:00 until the 28 at 06:00 UTC


270528Z 2706/2806 34005KT P6SM SKC
FM271700 21005KT P6SM SKC



MET'MAP, your aeronautical weather chart ! - Copyright ORBIFLY December 2007 - Disclaimer

ORBIFLY MET'MAP TEAM :

Programming & Development : Alexandra Zaïnal
Concept & original design : Baudouin d'Aumeries
Assistance for programming : Marc-Olivier Méhu
Technical & hardware support : Manuel Goepfert

Contact : metmap@orbifly.com




SOURCES & CREDITS :

   NOAA       Earth
Advisory